Location: Unspecified
(0.0000°N, 0.0000°E)
Time: 21:33:51
(UTC+00:00)

IBEX - Pass Details

Date: 25 May 2019
Orbit: 43050 x 333428 km, 30.2° (Epoch: 06 August)

Event Time Altitude Azimuth Distance (km) Brightness Sun altitude
Rises 20:00:08 0° 88° (E) 332,596 ? -28.6°
Reaches altitude 10° 20:40:59 10° 88° (E) 331,951 ? -37.8°
Maximum altitude 02:01:55 89° 359° (N) 329,859 ? -53.0°
Drops below altitude 10° 07:22:45 10° 270° (W) 337,204 ? 20.0°
Sets 08:03:34 0° 270° (W) 338,519 ? 29.4°
